Time,TemperatureF,DewpointF,PressureIn,WindDirection,WindDirectionDegrees,WindSpeedMPH,WindSpeedGustMPH,Humidity,HourlyPrecipIn,Conditions,Clouds,dailyrainin,SolarRadiationWatts/m^2,SoftwareType,DateUTC
2013-05-21 00:02:00,50.0,37.0,-100.00,South,182,0.0,6.0,60,0.00,,,-99.99,0.000000,,2013-05-21 06:02:00,
2013-05-21 00:12:00,50.0,37.0,-100.00,South,182,0.0,6.0,60,0.00,,,-99.99,0.000000,,2013-05-21 06:12:00,
2013-05-21 00:21:00,50.0,37.0,-100.00,South,182,0.0,6.0,60,0.00,,,-99.99,0.000000,,2013-05-21 06:21:00,
2013-05-21 00:52:00,46.0,36.0,-100.00,SSW,202,0.0,7.0,69,0.00,,,0.00,0.000000,,2013-05-21 06:52:00,
2013-05-21 01:01:00,46.0,36.0,-100.00,SSW,202,0.0,7.0,69,0.00,,,0.00,0.000000,,2013-05-21 07:01:00,
2013-05-21 01:11:00,46.0,36.0,-100.00,SSW,202,0.0,7.0,69,0.00,,,0.00,0.000000,,2013-05-21 07:11:00,
2013-05-21 01:21:00,46.0,36.0,-100.00,SSW,202,0.0,7.0,69,0.00,,,0.00,0.000000,,2013-05-21 07:21:00,
2013-05-21 01:52:00,45.0,37.0,-100.00,SSE,159,0.0,4.0,73,0.00,,,0.00,0.000000,,2013-05-21 07:52:00,
2013-05-21 02:01:00,45.0,37.0,-100.00,SSE,159,0.0,4.0,73,0.00,,,0.00,0.000000,,2013-05-21 08:01:00,
2013-05-21 02:11:00,45.0,37.0,-100.00,SSE,159,0.0,4.0,73,0.00,,,0.00,0.000000,,2013-05-21 08:11:00,
2013-05-21 02:21:00,45.0,37.0,-100.00,SSE,159,0.0,4.0,73,0.00,,,0.00,0.000000,,2013-05-21 08:21:00,
2013-05-21 02:52:00,43.0,38.0,-100.00,ENE,71,0.0,5.0,83,0.00,,,0.00,0.000000,,2013-05-21 08:52:00,
2013-05-21 03:01:00,43.0,38.0,-100.00,ENE,71,0.0,5.0,83,0.00,,,0.00,0.000000,,2013-05-21 09:01:00,
2013-05-21 03:11:00,43.0,38.0,-100.00,ENE,71,0.0,5.0,83,0.00,,,0.00,0.000000,,2013-05-21 09:11:00,
2013-05-21 03:21:00,43.0,38.0,-100.00,ENE,71,0.0,5.0,83,0.00,,,0.00,0.000000,,2013-05-21 09:21:00,
2013-05-21 03:53:00,42.0,38.0,-100.00,ENE,66,0.0,4.0,85,0.00,,,0.00,0.000000,,2013-05-21 09:53:00,
2013-05-21 04:02:00,42.0,38.0,-100.00,ENE,66,0.0,4.0,85,0.00,,,0.00,0.000000,,2013-05-21 10:02:00,
2013-05-21 04:12:00,42.0,38.0,-100.00,ENE,66,0.0,4.0,85,0.00,,,0.00,0.000000,,2013-05-21 10:12:00,
2013-05-21 04:22:00,42.0,38.0,-100.00,ENE,66,0.0,4.0,85,0.00,,,0.00,0.000000,,2013-05-21 10:22:00,
2013-05-21 04:52:00,41.0,37.0,-100.00,ENE,69,0.0,2.0,87,0.00,,,0.00,0.000000,,2013-05-21 10:52:00,
2013-05-21 05:02:00,41.0,37.0,-100.00,ENE,69,0.0,2.0,87,0.00,,,0.00,0.000000,,2013-05-21 11:02:00,
2013-05-21 05:11:00,41.0,37.0,-100.00,ENE,69,0.0,2.0,87,0.00,,,0.00,0.000000,,2013-05-21 11:11:00,
2013-05-21 05:21:00,41.0,37.0,-100.00,ENE,69,0.0,2.0,87,0.00,,,0.00,0.000000,,2013-05-21 11:21:00,
2013-05-21 05:52:00,38.0,36.0,-100.00,NNE,33,0.0,3.0,91,0.00,,,0.00,0.000000,,2013-05-21 11:52:00,
2013-05-21 06:01:00,38.0,36.0,-100.00,NNE,33,0.0,3.0,91,0.00,,,0.00,0.000000,,2013-05-21 12:01:00,
2013-05-21 06:11:00,38.0,36.0,-100.00,NNE,33,0.0,3.0,91,0.00,,,0.00,0.000000,,2013-05-21 12:11:00,
2013-05-21 06:21:00,38.0,36.0,-100.00,NNE,33,0.0,3.0,91,0.00,,,0.00,0.000000,,2013-05-21 12:21:00,
2013-05-21 06:52:00,37.0,35.0,-100.00,ENE,62,0.0,3.0,92,0.00,,,0.00,0.000000,,2013-05-21 12:52:00,
2013-05-21 07:01:00,37.0,35.0,-100.00,ENE,62,0.0,3.0,92,0.00,,,0.00,0.000000,,2013-05-21 13:01:00,
2013-05-21 07:11:00,37.0,35.0,-100.00,ENE,62,0.0,3.0,92,0.00,,,0.00,0.000000,,2013-05-21 13:11:00,
2013-05-21 07:22:00,37.0,35.0,-100.00,ENE,62,0.0,3.0,92,0.00,,,0.00,0.000000,,2013-05-21 13:22:00,
2013-05-21 07:52:00,38.0,36.0,-100.00,NNW,340,0.0,4.0,93,0.00,,,0.00,11.000000,,2013-05-21 13:52:00,
2013-05-21 08:01:00,38.0,36.0,-100.00,NNW,340,0.0,4.0,93,0.00,,,0.00,11.000000,,2013-05-21 14:01:00,
2013-05-21 08:11:00,38.0,36.0,-100.00,NNW,340,0.0,4.0,93,0.00,,,0.00,11.000000,,2013-05-21 14:11:00,
2013-05-21 08:21:00,38.0,36.0,-100.00,NNW,340,0.0,4.0,93,0.00,,,0.00,11.000000,,2013-05-21 14:21:00,
2013-05-21 08:52:00,43.0,37.0,-100.00,ENE,69,0.0,3.0,80,0.00,,,0.00,90.000000,,2013-05-21 14:52:00,
2013-05-21 09:01:00,43.0,37.0,-100.00,ENE,69,0.0,3.0,80,0.00,,,0.00,90.000000,,2013-05-21 15:01:00,
2013-05-21 09:11:00,43.0,37.0,-100.00,ENE,69,0.0,3.0,80,0.00,,,0.00,90.000000,,2013-05-21 15:11:00,
2013-05-21 09:52:00,58.0,40.0,-100.00,WSW,256,4.0,7.0,51,0.00,,,0.00,261.000000,,2013-05-21 15:52:00,
2013-05-21 10:02:00,58.0,40.0,-100.00,WSW,256,4.0,7.0,51,0.00,,,0.00,261.000000,,2013-05-21 16:02:00,
2013-05-21 10:12:00,58.0,40.0,-100.00,WSW,256,4.0,7.0,51,0.00,,,0.00,261.000000,,2013-05-21 16:12:00,
2013-05-21 10:23:00,58.0,40.0,-100.00,WSW,256,4.0,7.0,51,0.00,,,0.00,261.000000,,2013-05-21 16:23:00,
2013-05-21 10:53:00,62.0,39.0,-100.00,SW,235,6.0,16.0,42,0.00,,,0.00,413.000000,,2013-05-21 16:53:00,
2013-05-21 11:02:00,62.0,39.0,-100.00,SW,235,6.0,16.0,42,0.00,,,0.00,413.000000,,2013-05-21 17:02:00,
2013-05-21 11:12:00,62.0,39.0,-100.00,SW,235,6.0,16.0,42,0.00,,,0.00,413.000000,,2013-05-21 17:12:00,
2013-05-21 11:22:00,62.0,39.0,-100.00,SW,235,6.0,16.0,42,0.00,,,0.00,413.000000,,2013-05-21 17:22:00,
2013-05-21 11:52:00,63.0,34.0,-100.00,SSW,213,8.0,16.0,34,0.00,,,0.00,719.000000,,2013-05-21 17:52:00,
2013-05-21 12:01:00,63.0,34.0,-100.00,SSW,213,8.0,16.0,34,0.00,,,0.00,719.000000,,2013-05-21 18:01:00,
2013-05-21 12:11:00,63.0,34.0,-100.00,SSW,213,8.0,16.0,34,0.00,,,0.00,719.000000,,2013-05-21 18:11:00,
2013-05-21 12:22:00,63.0,34.0,-100.00,SSW,213,8.0,16.0,34,0.00,,,0.00,719.000000,,2013-05-21 18:22:00,
2013-05-21 12:52:00,68.0,36.0,-100.00,East,88,6.0,14.0,31,0.00,,,0.00,624.000000,,2013-05-21 18:52:00,
2013-05-21 13:01:00,68.0,36.0,-100.00,East,88,6.0,14.0,31,0.00,,,0.00,624.000000,,2013-05-21 19:01:00,
2013-05-21 13:11:00,68.0,36.0,-100.00,East,88,6.0,14.0,31,0.00,,,0.00,624.000000,,2013-05-21 19:11:00,
2013-05-21 13:21:00,68.0,36.0,-100.00,East,88,6.0,14.0,31,0.00,,,0.00,624.000000,,2013-05-21 19:21:00,
2013-05-21 13:52:00,71.0,28.0,-100.00,WSW,246,6.0,17.0,20,0.00,,,0.00,850.000000,,2013-05-21 19:52:00,
2013-05-21 14:03:00,71.0,28.0,-100.00,WSW,246,6.0,17.0,20,0.00,,,0.00,850.000000,,2013-05-21 20:03:00,
2013-05-21 14:11:00,71.0,28.0,-100.00,WSW,246,6.0,17.0,20,0.00,,,0.00,850.000000,,2013-05-21 20:11:00,
2013-05-21 14:22:00,71.0,28.0,-100.00,WSW,246,6.0,17.0,20,0.00,,,0.00,850.000000,,2013-05-21 20:22:00,
2013-05-21 14:52:00,73.0,30.0,-100.00,NNW,330,5.0,19.0,20,0.00,,,0.00,949.000000,,2013-05-21 20:52:00,
2013-05-21 15:01:00,73.0,30.0,-100.00,NNW,330,5.0,19.0,20,0.00,,,0.00,949.000000,,2013-05-21 21:01:00,
2013-05-21 15:11:00,73.0,30.0,-100.00,NNW,330,5.0,19.0,20,0.00,,,0.00,949.000000,,2013-05-21 21:11:00,
2013-05-21 15:21:00,73.0,30.0,-100.00,NNW,330,5.0,19.0,20,0.00,,,0.00,949.000000,,2013-05-21 21:21:00,
2013-05-21 15:54:00,71.0,31.0,-100.00,West,262,6.0,19.0,23,0.00,,,0.00,624.000000,,2013-05-21 21:54:00,
2013-05-21 16:02:00,71.0,31.0,-100.00,West,262,6.0,19.0,23,0.00,,,0.00,624.000000,,2013-05-21 22:02:00,
2013-05-21 16:12:00,71.0,31.0,-100.00,West,262,6.0,19.0,23,0.00,,,0.00,624.000000,,2013-05-21 22:12:00,
2013-05-21 16:22:00,71.0,31.0,-100.00,West,262,6.0,19.0,23,0.00,,,0.00,624.000000,,2013-05-21 22:22:00,
2013-05-21 16:53:00,69.0,30.0,-100.00,West,262,3.0,14.0,23,0.00,,,0.00,380.000000,,2013-05-21 22:53:00,
2013-05-21 17:02:00,69.0,30.0,-100.00,West,262,3.0,14.0,23,0.00,,,0.00,380.000000,,2013-05-21 23:02:00,
2013-05-21 17:12:00,69.0,30.0,-100.00,West,262,3.0,14.0,23,0.00,,,0.00,380.000000,,2013-05-21 23:12:00,
2013-05-21 17:22:00,69.0,30.0,-100.00,West,262,3.0,14.0,23,0.00,,,0.00,380.000000,,2013-05-21 23:22:00,
2013-05-21 17:52:00,70.0,27.0,-100.00,SW,223,11.0,12.0,20,0.00,,,0.00,238.000000,,2013-05-21 23:52:00,
2013-05-21 18:01:00,70.0,27.0,-100.00,SW,223,11.0,12.0,20,0.00,,,0.00,238.000000,,2013-05-22 00:01:00,
2013-05-21 18:11:00,70.0,27.0,-100.00,SW,223,11.0,12.0,20,0.00,,,0.00,238.000000,,2013-05-22 00:11:00,
2013-05-21 18:21:00,70.0,27.0,-100.00,SW,223,11.0,12.0,20,0.00,,,0.00,238.000000,,2013-05-22 00:21:00,
2013-05-21 18:52:00,70.0,30.0,-100.00,SSW,205,11.0,20.0,23,0.00,,,0.00,490.000000,,2013-05-22 00:52:00,
2013-05-21 19:01:00,70.0,30.0,-100.00,SSW,205,11.0,20.0,23,0.00,,,0.00,490.000000,,2013-05-22 01:01:00,
2013-05-21 19:11:00,70.0,30.0,-100.00,SSW,205,11.0,20.0,23,0.00,,,0.00,490.000000,,2013-05-22 01:11:00,
2013-05-21 19:21:00,70.0,30.0,-100.00,SSW,205,11.0,20.0,23,0.00,,,0.00,490.000000,,2013-05-22 01:21:00,
2013-05-21 19:52:00,68.0,34.0,-100.00,SW,234,11.0,23.0,28,0.00,,,0.00,393.000000,,2013-05-22 01:52:00,
2013-05-21 20:01:00,68.0,34.0,-100.00,SW,234,11.0,23.0,28,0.00,,,0.00,393.000000,,2013-05-22 02:01:00,
2013-05-21 20:11:00,68.0,34.0,-100.00,SW,234,11.0,23.0,28,0.00,,,0.00,393.000000,,2013-05-22 02:11:00,
2013-05-21 20:21:00,68.0,34.0,-100.00,SW,234,11.0,23.0,28,0.00,,,0.00,393.000000,,2013-05-22 02:21:00,
2013-05-21 20:52:00,63.0,38.0,-100.00,SSW,213,10.0,24.0,40,0.00,,,0.00,199.000000,,2013-05-22 02:52:00,
2013-05-21 21:01:00,63.0,38.0,-100.00,SSW,213,10.0,24.0,40,0.00,,,0.00,199.000000,,2013-05-22 03:01:00,
2013-05-21 21:11:00,63.0,38.0,-100.00,SSW,213,10.0,24.0,40,0.00,,,0.00,199.000000,,2013-05-22 03:11:00,
2013-05-21 21:21:00,63.0,38.0,-100.00,SSW,213,10.0,24.0,40,0.00,,,0.00,199.000000,,2013-05-22 03:21:00,
2013-05-21 21:53:00,57.0,38.0,-100.00,NE,47,2.0,20.0,49,0.00,,,0.00,21.000000,,2013-05-22 03:53:00,
2013-05-21 22:03:00,57.0,38.0,-100.00,NE,47,2.0,20.0,49,0.00,,,0.00,21.000000,,2013-05-22 04:03:00,
2013-05-21 22:12:00,57.0,38.0,-100.00,NE,47,2.0,20.0,49,0.00,,,0.00,21.000000,,2013-05-22 04:12:00,
2013-05-21 22:22:00,57.0,38.0,-100.00,NE,47,2.0,20.0,49,0.00,,,0.00,21.000000,,2013-05-22 04:22:00,
2013-05-21 22:53:00,56.0,40.0,-100.00,SE,129,0.0,11.0,54,0.00,,,0.00,0.000000,,2013-05-22 04:53:00,
2013-05-21 23:02:00,56.0,40.0,-100.00,SE,129,0.0,11.0,54,0.00,,,0.00,0.000000,,2013-05-22 05:02:00,
2013-05-21 23:11:00,56.0,40.0,-100.00,SE,129,0.0,11.0,54,0.00,,,0.00,0.000000,,2013-05-22 05:11:00,
2013-05-21 23:21:00,56.0,40.0,-100.00,SE,129,0.0,11.0,54,0.00,,,0.00,0.000000,,2013-05-22 05:21:00,
2013-05-21 23:52:00,51.0,45.0,-100.00,South,183,9.0,12.0,81,0.02,,,0.02,0.000000,,2013-05-22 05:52:00,